Wetterdaten: Woche 05.01.15 - 11.01.15 (KW2)
Datum Zeit Temperatur Luftfeuchte Luftdruck Niederschlag Windrichtung Sonnenschein Solar Wind
05.01.2015 00:00 0,6 C 86 % 1036,1 hPa 0,0 l/m W 0,00 h 0 W/m 12,2 km/h (2 Bft)
05.01.2015 01:00 0,5 C 84 % 1036,2 hPa 0,0 l/m W-NW 0,00 h 0 W/m 10,6 km/h (2 Bft)
05.01.2015 02:00 0,1 C 83 % 1036,5 hPa 0,0 l/m W-NW 0,00 h 0 W/m 2,4 km/h (1 Bft)
05.01.2015 03:00 -0,4 C 84 % 1036,4 hPa 0,0 l/m N 0,00 h 0 W/m 1,2 km/h (1 Bft)
05.01.2015 04:00 -1,5 C 86 % 1035,9 hPa 0,0 l/m N 0,00 h 0 W/m 0,0 km/h (0 Bft)
05.01.2015 05:00 -2,4 C 88 % 1035,4 hPa 0,0 l/m N 0,00 h 0 W/m 0,0 km/h (0 Bft)
05.01.2015 06:00 -3,2 C 89 % 1035,2 hPa 0,0 l/m N 0,00 h 0 W/m 0,0 km/h (0 Bft)
05.01.2015 07:00 -3,7 C 91 % 1035,2 hPa 0,0 l/m N 0,00 h 0 W/m 0,1 km/h (0 Bft)
05.01.2015 08:00 -3,9 C 92 % 1035,3 hPa 0,0 l/m N 0,00 h 13 W/m 0,0 km/h (0 Bft)
05.01.2015 09:00 -3,7 C 94 % 1035,3 hPa 0,0 l/m N 0,00 h 61 W/m 0,4 km/h (0 Bft)
05.01.2015 10:00 -2,5 C 96 % 1034,8 hPa 0,0 l/m W-NW 0,42 h 104 W/m 4,4 km/h (1 Bft)
05.01.2015 11:00 -0,6 C 96 % 1034,1 hPa 0,0 l/m W 0,92 h 243 W/m 7,2 km/h (2 Bft)
05.01.2015 12:00 1,9 C 91 % 1033,3 hPa 0,0 l/m S-SW 1,00 h 316 W/m 8,3 km/h (2 Bft)
05.01.2015 13:00 3,0 C 80 % 1032,4 hPa 0,0 l/m S-SW 1,00 h 298 W/m 9,0 km/h (2 Bft)
05.01.2015 14:00 3,1 C 78 % 1031,9 hPa 0,0 l/m S-SW 1,00 h 221 W/m 8,7 km/h (2 Bft)
05.01.2015 15:00 2,8 C 80 % 1031,4 hPa 0,0 l/m S-SW 0,83 h 99 W/m 7,1 km/h (2 Bft)
05.01.2015 16:00 2,1 C 81 % 1031,2 hPa 0,0 l/m S-SW 0,08 h 13 W/m 4,4 km/h (1 Bft)
05.01.2015 17:00 0,6 C 82 % 1031,1 hPa 0,0 l/m N 0,00 h 0 W/m 0,0 km/h (0 Bft)
05.01.2015 18:00 -0,9 C 85 % 1030,9 hPa 0,0 l/m N 0,00 h 0 W/m 0,4 km/h (0 Bft)
05.01.2015 19:00 -1,7 C 87 % 1030,9 hPa 0,0 l/m N 0,00 h 0 W/m 0,0 km/h (0 Bft)
05.01.2015 20:00 -2,5 C 88 % 1030,7 hPa 0,0 l/m N 0,00 h 0 W/m 0,0 km/h (0 Bft)
05.01.2015 21:00 -3,0 C 90 % 1030,3 hPa 0,0 l/m N 0,00 h 0 W/m 0,0 km/h (0 Bft)
05.01.2015 22:00 -3,3 C 92 % 1029,9 hPa 0,0 l/m N 0,00 h 0 W/m 0,5 km/h (0 Bft)
05.01.2015 23:00 -3,6 C 92 % 1029,5 hPa 0,0 l/m N 0,00 h 0 W/m 0,0 km/h (0 Bft)
06.01.2015 00:00 -3,8 C 93 % 1029,1 hPa 0,0 l/m N 0,00 h 0 W/m 0,0 km/h (0 Bft)
06.01.2015 01:00 -3,7 C 94 % 1028,6 hPa 0,0 l/m N 0,00 h 0 W/m 0,0 km/h (0 Bft)
06.01.2015 02:00 -4,0 C 94 % 1028,3 hPa 0,0 l/m N 0,00 h 0 W/m 0,3 km/h (0 Bft)
06.01.2015 03:00 -4,4 C 94 % 1027,9 hPa 0,0 l/m N 0,00 h 0 W/m 0,0 km/h (0 Bft)
06.01.2015 04:00 -4,9 C 94 % 1027,2 hPa 0,0 l/m N 0,00 h 0 W/m 0,0 km/h (0 Bft)
06.01.2015 05:00 -5,3 C 94 % 1026,8 hPa 0,0 l/m N 0,00 h 0 W/m 0,0 km/h (0 Bft)
06.01.2015 06:00 -5,6 C 94 % 1026,5 hPa 0,0 l/m N 0,00 h 0 W/m 0,3 km/h (0 Bft)
06.01.2015 07:00 -5,6 C 94 % 1026,6 hPa 0,0 l/m N 0,00 h 0 W/m 0,0 km/h (0 Bft)
06.01.2015 08:00 -5,8 C 94 % 1026,7 hPa 0,0 l/m N 0,00 h 14 W/m 0,0 km/h (0 Bft)
06.01.2015 09:00 -5,8 C 95 % 1026,8 hPa 0,0 l/m N 0,00 h 39 W/m 0,0 km/h (0 Bft)
06.01.2015 10:00 -4,8 C 96 % 1026,5 hPa 0,0 l/m S-SW 0,33 h 106 W/m 2,0 km/h (1 Bft)
06.01.2015 11:00 -2,5 C 97 % 1026,2 hPa 0,0 l/m S-SW 0,92 h 247 W/m 3,9 km/h (1 Bft)
06.01.2015 12:00 0,0 C 97 % 1025,5 hPa 0,0 l/m S-SW 1,00 h 296 W/m 5,9 km/h (2 Bft)
06.01.2015 13:00 1,4 C 89 % 1024,8 hPa 0,0 l/m S-SW 0,83 h 213 W/m 6,3 km/h (2 Bft)
06.01.2015 14:00 1,6 C 82 % 1024,4 hPa 0,0 l/m S-SW 0,83 h 153 W/m 7,5 km/h (2 Bft)
06.01.2015 15:00 0,7 C 86 % 1024,3 hPa 0,0 l/m S-SW 0,25 h 81 W/m 5,9 km/h (2 Bft)
06.01.2015 16:00 0,1 C 88 % 1024,6 hPa 0,0 l/m N 0,25 h 17 W/m 1,3 km/h (1 Bft)
06.01.2015 17:00 -1,0 C 89 % 1024,8 hPa 0,0 l/m S-SW 0,00 h 0 W/m 3,6 km/h (1 Bft)
06.01.2015 18:00 -1,9 C 91 % 1025,3 hPa 0,0 l/m S-SW 0,00 h 0 W/m 2,1 km/h (1 Bft)
06.01.2015 19:00 -2,8 C 93 % 1025,6 hPa 0,0 l/m N 0,00 h 0 W/m 2,1 km/h (1 Bft)
06.01.2015 20:00 -3,3 C 93 % 1026,0 hPa 0,0 l/m N 0,00 h 0 W/m 0,0 km/h (0 Bft)
06.01.2015 21:00 -3,7 C 94 % 1026,3 hPa 0,0 l/m N 0,00 h 0 W/m 1,1 km/h (0 Bft)
06.01.2015 22:00 -3,9 C 94 % 1026,6 hPa 0,0 l/m N 0,00 h 0 W/m 1,5 km/h (1 Bft)
06.01.2015 23:00 -3,8 C 95 % 1026,9 hPa 0,0 l/m S-SW 0,00 h 0 W/m 2,7 km/h (1 Bft)
07.01.2015 00:00 -3,7 C 96 % 1027,1 hPa 0,0 l/m S-SW 0,00 h 0 W/m 3,9 km/h (1 Bft)
07.01.2015 01:00 -3,8 C 96 % 1027,8 hPa 0,0 l/m S-SW 0,00 h 0 W/m 4,7 km/h (1 Bft)
07.01.2015 02:00 -3,8 C 96 % 1028,7 hPa 0,0 l/m S-SW 0,00 h 0 W/m 5,2 km/h (1 Bft)
07.01.2015 03:00 -3,6 C 97 % 1029,2 hPa 0,0 l/m S-SW 0,00 h 0 W/m 6,8 km/h (2 Bft)
07.01.2015 04:00 -2,8 C 97 % 1029,3 hPa 0,0 l/m S-SW 0,00 h 0 W/m 9,1 km/h (2 Bft)
07.01.2015 05:00 -2,2 C 97 % 1029,5 hPa 0,0 l/m S-SW 0,00 h 0 W/m 3,2 km/h (1 Bft)
07.01.2015 06:00 -1,9 C 98 % 1029,6 hPa 0,0 l/m S-SW 0,00 h 0 W/m 3,9 km/h (1 Bft)
07.01.2015 07:00 -1,5 C 98 % 1029,8 hPa 0,0 l/m S-SW 0,00 h 0 W/m 6,4 km/h (2 Bft)
07.01.2015 08:00 -1,1 C 98 % 1030,4 hPa 0,0 l/m S-SW 0,00 h 10 W/m 4,3 km/h (1 Bft)
07.01.2015 09:00 -0,6 C 98 % 1031,0 hPa 0,2 l/m S-SW 0,00 h 33 W/m 3,1 km/h (1 Bft)
07.01.2015 10:00 0,0 C 98 % 1031,0 hPa 0,0 l/m S-SW 0,00 h 52 W/m 3,7 km/h (1 Bft)
07.01.2015 11:00 0,7 C 98 % 1031,2 hPa 0,0 l/m N 0,00 h 77 W/m 1,3 km/h (1 Bft)
07.01.2015 12:00 1,1 C 98 % 1030,9 hPa 0,0 l/m S-SW 0,00 h 59 W/m 3,2 km/h (1 Bft)
07.01.2015 13:00 1,2 C 98 % 1030,5 hPa 0,0 l/m S-SW 0,00 h 69 W/m 5,5 km/h (1 Bft)
07.01.2015 14:00 1,5 C 98 % 1030,5 hPa 0,0 l/m S-SW 0,00 h 56 W/m 6,4 km/h (2 Bft)
07.01.2015 15:00 1,9 C 98 % 1030,4 hPa 0,0 l/m S-SW 0,42 h 78 W/m 5,7 km/h (1 Bft)
07.01.2015 16:00 1,7 C 97 % 1030,8 hPa 0,0 l/m N 0,25 h 19 W/m 0,8 km/h (0 Bft)
07.01.2015 17:00 0,5 C 97 % 1031,3 hPa 0,0 l/m N 0,00 h 0 W/m 0,0 km/h (0 Bft)
07.01.2015 18:00 -0,2 C 97 % 1031,7 hPa 0,0 l/m N 0,00 h 0 W/m 1,2 km/h (1 Bft)
07.01.2015 19:00 0,3 C 97 % 1031,7 hPa 0,0 l/m N 0,00 h 0 W/m 0,3 km/h (0 Bft)
07.01.2015 20:00 0,2 C 97 % 1031,6 hPa 0,0 l/m N 0,00 h 0 W/m 0,7 km/h (0 Bft)
07.01.2015 21:00 0,0 C 97 % 1031,5 hPa 0,0 l/m N 0,00 h 0 W/m 0,0 km/h (0 Bft)
07.01.2015 22:00 -0,4 C 97 % 1031,7 hPa 0,0 l/m N 0,00 h 0 W/m 0,1 km/h (0 Bft)
07.01.2015 23:00 -0,3 C 98 % 1031,4 hPa 0,0 l/m S-SW 0,00 h 0 W/m 5,5 km/h (1 Bft)
08.01.2015 00:00 0,2 C 98 % 1031,4 hPa 0,0 l/m S-SW 0,00 h 0 W/m 6,6 km/h (2 Bft)
08.01.2015 01:00 0,3 C 98 % 1031,3 hPa 0,0 l/m S-SW 0,00 h 0 W/m 4,5 km/h (1 Bft)
08.01.2015 02:00 0,2 C 98 % 1031,5 hPa 0,0 l/m S-SW 0,00 h 0 W/m 5,9 km/h (2 Bft)
08.01.2015 03:00 0,2 C 98 % 1031,3 hPa 0,0 l/m S-SW 0,00 h 0 W/m 4,7 km/h (1 Bft)
08.01.2015 04:00 0,0 C 98 % 1030,9 hPa 0,0 l/m S-SW 0,00 h 0 W/m 6,0 km/h (2 Bft)
08.01.2015 05:00 0,3 C 99 % 1030,8 hPa 0,0 l/m S-SW 0,00 h 0 W/m 9,7 km/h (2 Bft)
08.01.2015 06:00 0,7 C 99 % 1030,8 hPa 0,0 l/m S-SW 0,00 h 0 W/m 9,4 km/h (2 Bft)
08.01.2015 07:00 0,6 C 98 % 1030,8 hPa 0,0 l/m S-SW 0,00 h 0 W/m 9,3 km/h (2 Bft)
08.01.2015 08:00 0,7 C 98 % 1030,9 hPa 0,2 l/m S-SW 0,00 h 14 W/m 13,0 km/h (3 Bft)
08.01.2015 09:00 1,2 C 98 % 1030,9 hPa 0,0 l/m S-SW 0,00 h 25 W/m 13,6 km/h (3 Bft)
08.01.2015 10:00 1,6 C 97 % 1030,7 hPa 0,0 l/m SW 0,00 h 47 W/m 14,1 km/h (3 Bft)
08.01.2015 11:00 2,3 C 95 % 1030,4 hPa 0,0 l/m SW 0,00 h 106 W/m 11,7 km/h (2 Bft)
08.01.2015 12:00 4,4 C 88 % 1029,6 hPa 0,0 l/m SW 0,33 h 182 W/m 12,9 km/h (3 Bft)
08.01.2015 13:00 4,8 C 85 % 1028,8 hPa 0,0 l/m SW 0,08 h 83 W/m 11,4 km/h (2 Bft)
08.01.2015 14:00 5,1 C 82 % 1028,3 hPa 0,0 l/m SW 0,00 h 81 W/m 15,8 km/h (3 Bft)
08.01.2015 15:00 5,7 C 80 % 1028,3 hPa 0,0 l/m W-SW 0,00 h 63 W/m 22,8 km/h (4 Bft)
08.01.2015 16:00 6,2 C 79 % 1028,4 hPa 0,0 l/m W-SW 0,00 h 14 W/m 27,1 km/h (4 Bft)
08.01.2015 17:00 6,3 C 79 % 1028,1 hPa 0,0 l/m W-SW 0,00 h 0 W/m 25,9 km/h (4 Bft)
08.01.2015 18:00 6,1 C 78 % 1027,8 hPa 0,0 l/m W-SW 0,00 h 0 W/m 27,8 km/h (4 Bft)
08.01.2015 19:00 6,2 C 83 % 1028,6 hPa 0,2 l/m W-SW 0,00 h 0 W/m 34,2 km/h (5 Bft)
08.01.2015 20:00 6,5 C 82 % 1029,3 hPa 0,0 l/m W-SW 0,00 h 0 W/m 34,9 km/h (5 Bft)
08.01.2015 21:00 6,3 C 86 % 1030,8 hPa 0,0 l/m W-SW 0,00 h 0 W/m 39,6 km/h (6 Bft)
08.01.2015 22:00 6,2 C 89 % 1031,8 hPa 0,0 l/m W-SW 0,00 h 0 W/m 30,3 km/h (5 Bft)
08.01.2015 23:00 5,9 C 92 % 1032,5 hPa 0,2 l/m W-SW 0,00 h 0 W/m 24,0 km/h (4 Bft)
09.01.2015 00:00 5,8 C 93 % 1033,3 hPa 0,2 l/m W-SW 0,00 h 0 W/m 10,7 km/h (2 Bft)
09.01.2015 01:00 5,4 C 94 % 1033,7 hPa 1,0 l/m W-SW 0,00 h 0 W/m 14,3 km/h (3 Bft)
09.01.2015 02:00 5,2 C 95 % 1033,9 hPa 0,0 l/m W-SW 0,00 h 0 W/m 15,0 km/h (3 Bft)
09.01.2015 03:00 4,7 C 95 % 1033,6 hPa 0,0 l/m SW 0,00 h 0 W/m 14,5 km/h (3 Bft)
09.01.2015 04:00 4,2 C 95 % 1032,5 hPa 0,2 l/m W-SW 0,00 h 0 W/m 18,4 km/h (3 Bft)
09.01.2015 05:00 4,5 C 95 % 1032,7 hPa 0,0 l/m SW 0,00 h 0 W/m 18,2 km/h (3 Bft)
09.01.2015 06:00 5,0 C 93 % 1032,2 hPa 0,0 l/m W-SW 0,00 h 0 W/m 25,1 km/h (4 Bft)
09.01.2015 07:00 5,2 C 91 % 1031,0 hPa 0,0 l/m SW 0,00 h 0 W/m 24,5 km/h (4 Bft)
09.01.2015 08:00 5,0 C 90 % 1030,3 hPa 0,0 l/m W-SW 0,00 h 5 W/m 20,4 km/h (4 Bft)
09.01.2015 09:00 4,8 C 91 % 1029,5 hPa 0,0 l/m W-SW 0,00 h 13 W/m 20,2 km/h (4 Bft)
09.01.2015 10:00 5,1 C 90 % 1028,5 hPa 0,0 l/m SW 0,00 h 39 W/m 24,0 km/h (4 Bft)
09.01.2015 11:00 6,2 C 80 % 1027,8 hPa 0,0 l/m W-SW 0,00 h 37 W/m 32,9 km/h (5 Bft)
09.01.2015 12:00 7,0 C 72 % 1026,7 hPa 0,0 l/m W-SW 0,00 h 94 W/m 40,8 km/h (6 Bft)
09.01.2015 13:00 7,6 C 72 % 1025,5 hPa 0,0 l/m W-SW 0,00 h 94 W/m 42,1 km/h (6 Bft)
09.01.2015 14:00 7,6 C 71 % 1025,4 hPa 0,0 l/m W-SW 0,00 h 57 W/m 46,4 km/h (6 Bft)
09.01.2015 15:00 7,0 C 82 % 1025,7 hPa 0,0 l/m W-SW 0,00 h 15 W/m 41,8 km/h (6 Bft)
09.01.2015 16:00 6,3 C 89 % 1025,3 hPa 0,0 l/m W-SW 0,00 h 6 W/m 40,2 km/h (6 Bft)
09.01.2015 17:00 6,3 C 92 % 1024,7 hPa 0,0 l/m SW 0,00 h 0 W/m 42,0 km/h (6 Bft)
09.01.2015 18:00 6,7 C 92 % 1024,3 hPa 0,0 l/m W 0,00 h 0 W/m 35,9 km/h (5 Bft)
09.01.2015 19:00 7,0 C 94 % 1024,2 hPa 0,0 l/m SW 0,00 h 0 W/m 32,1 km/h (5 Bft)
09.01.2015 20:00 7,5 C 93 % 1023,6 hPa 0,0 l/m W-SW 0,00 h 0 W/m 33,0 km/h (5 Bft)
09.01.2015 21:00 7,9 C 94 % 1022,8 hPa 0,6 l/m W-SW 0,00 h 0 W/m 40,0 km/h (6 Bft)
09.01.2015 22:00 8,4 C 94 % 1021,9 hPa 0,0 l/m W-SW 0,00 h 0 W/m 44,7 km/h (6 Bft)
09.01.2015 23:00 8,8 C 94 % 1021,9 hPa 0,0 l/m SW 0,00 h 0 W/m 44,7 km/h (6 Bft)
10.01.2015 00:00 9,1 C 94 % 1022,3 hPa 0,0 l/m W-SW 0,00 h 0 W/m 38,5 km/h (5 Bft)
10.01.2015 01:00 9,2 C 95 % 1022,3 hPa 0,0 l/m W-SW 0,00 h 0 W/m 38,2 km/h (5 Bft)
10.01.2015 02:00 9,4 C 96 % 1022,0 hPa 0,0 l/m W-SW 0,00 h 0 W/m 38,9 km/h (6 Bft)
10.01.2015 03:00 9,9 C 94 % 1022,1 hPa 0,0 l/m W-SW 0,00 h 0 W/m 37,4 km/h (5 Bft)
10.01.2015 04:00 10,4 C 93 % 1022,1 hPa 0,0 l/m W-SW 0,00 h 0 W/m 40,1 km/h (6 Bft)
10.01.2015 05:00 10,7 C 91 % 1021,9 hPa 0,0 l/m W-SW 0,00 h 0 W/m 41,0 km/h (6 Bft)
10.01.2015 06:00 10,8 C 90 % 1022,4 hPa 0,0 l/m SW 0,00 h 0 W/m 37,3 km/h (5 Bft)
10.01.2015 07:00 11,1 C 89 % 1022,5 hPa 0,0 l/m SW 0,00 h 0 W/m 38,9 km/h (6 Bft)
10.01.2015 08:00 11,3 C 88 % 1022,2 hPa 0,0 l/m W-SW 0,00 h 12 W/m 39,4 km/h (6 Bft)
10.01.2015 09:00 11,6 C 88 % 1021,3 hPa 0,0 l/m W-SW 0,00 h 46 W/m 30,7 km/h (5 Bft)
10.01.2015 10:00 12,7 C 83 % 1020,0 hPa 0,0 l/m W 0,50 h 149 W/m 39,7 km/h (6 Bft)
10.01.2015 11:00 13,4 C 79 % 1019,0 hPa 0,0 l/m W-SW 0,83 h 242 W/m 41,8 km/h (6 Bft)
10.01.2015 12:00 13,8 C 75 % 1018,1 hPa 0,0 l/m W 0,75 h 299 W/m 46,1 km/h (6 Bft)
10.01.2015 13:00 13,8 C 74 % 1017,6 hPa 0,0 l/m W-SW 0,92 h 297 W/m 43,2 km/h (6 Bft)
10.01.2015 14:00 13,7 C 72 % 1017,0 hPa 0,0 l/m W-SW 0,50 h 162 W/m 41,3 km/h (6 Bft)
10.01.2015 15:00 13,3 C 74 % 1017,1 hPa 0,0 l/m W 0,00 h 36 W/m 34,9 km/h (5 Bft)
10.01.2015 16:00 13,2 C 74 % 1017,0 hPa 0,0 l/m W-SW 0,00 h 10 W/m 35,7 km/h (5 Bft)
10.01.2015 17:00 12,8 C 73 % 1016,8 hPa 0,0 l/m W-SW 0,00 h 0 W/m 35,4 km/h (5 Bft)
10.01.2015 18:00 12,3 C 74 % 1016,8 hPa 0,0 l/m W 0,00 h 0 W/m 35,7 km/h (5 Bft)
10.01.2015 19:00 12,0 C 72 % 1016,5 hPa 0,0 l/m W 0,00 h 0 W/m 42,2 km/h (6 Bft)
10.01.2015 20:00 11,6 C 72 % 1016,0 hPa 0,0 l/m W 0,00 h 0 W/m 40,5 km/h (6 Bft)
10.01.2015 21:00 11,1 C 75 % 1016,0 hPa 0,0 l/m W 0,00 h 0 W/m 37,2 km/h (5 Bft)
10.01.2015 22:00 10,7 C 77 % 1015,7 hPa 0,0 l/m SW 0,00 h 0 W/m 34,5 km/h (5 Bft)
10.01.2015 23:00 10,4 C 79 % 1015,2 hPa 0,0 l/m W-SW 0,00 h 0 W/m 30,3 km/h (5 Bft)
11.01.2015 00:00 10,3 C 80 % 1014,6 hPa 0,0 l/m W-SW 0,00 h 0 W/m 25,1 km/h (4 Bft)
11.01.2015 01:00 10,2 C 81 % 1013,8 hPa 0,0 l/m W-SW 0,00 h 0 W/m 25,9 km/h (4 Bft)
11.01.2015 02:00 10,0 C 83 % 1013,2 hPa 0,0 l/m W-SW 0,00 h 0 W/m 25,7 km/h (4 Bft)
11.01.2015 03:00 7,5 C 87 % 1013,4 hPa 4,0 l/m NW 0,00 h 0 W/m 17,8 km/h (3 Bft)
11.01.2015 04:00 5,0 C 92 % 1013,4 hPa 2,4 l/m NW 0,00 h 0 W/m 23,5 km/h (4 Bft)
11.01.2015 05:00 3,7 C 93 % 1013,6 hPa 0,8 l/m NW 0,00 h 0 W/m 23,3 km/h (4 Bft)
11.01.2015 06:00 3,1 C 93 % 1014,3 hPa 0,8 l/m W-NW 0,00 h 0 W/m 17,2 km/h (3 Bft)
11.01.2015 07:00 2,5 C 93 % 1015,1 hPa 0,4 l/m W-NW 0,00 h 0 W/m 12,9 km/h (3 Bft)
11.01.2015 08:00 2,3 C 94 % 1016,6 hPa 0,2 l/m W-SW 0,00 h 6 W/m 14,2 km/h (3 Bft)
11.01.2015 09:00 1,9 C 90 % 1019,6 hPa 0,0 l/m W-SW 0,00 h 18 W/m 15,6 km/h (3 Bft)
11.01.2015 10:00 1,8 C 89 % 1022,0 hPa 0,0 l/m SW 0,00 h 18 W/m 16,8 km/h (3 Bft)
11.01.2015 11:00 1,7 C 91 % 1022,6 hPa 0,0 l/m W-SW 0,00 h 30 W/m 26,6 km/h (4 Bft)
11.01.2015 12:00 1,7 C 93 % 1022,6 hPa 0,6 l/m W-SW 0,08 h 123 W/m 24,7 km/h (4 Bft)
11.01.2015 13:00 2,6 C 91 % 1021,7 hPa 0,0 l/m SW 0,25 h 143 W/m 24,4 km/h (4 Bft)
11.01.2015 14:00 1,8 C 91 % 1021,6 hPa 0,2 l/m W 0,08 h 54 W/m 19,0 km/h (3 Bft)
11.01.2015 15:00 1,8 C 90 % 1022,5 hPa 0,0 l/m W 0,25 h 57 W/m 26,1 km/h (4 Bft)
11.01.2015 16:00 1,8 C 84 % 1023,9 hPa 0,0 l/m W 0,00 h 12 W/m 29,8 km/h (5 Bft)
11.01.2015 17:00 1,7 C 81 % 1024,6 hPa 0,0 l/m W 0,00 h 0 W/m 25,1 km/h (4 Bft)
11.01.2015 18:00 1,4 C 82 % 1025,3 hPa 0,0 l/m W-SW 0,00 h 0 W/m 17,8 km/h (3 Bft)
11.01.2015 19:00 1,3 C 84 % 1026,3 hPa 0,0 l/m W-SW 0,00 h 0 W/m 17,0 km/h (3 Bft)
11.01.2015 20:00 1,3 C 86 % 1027,1 hPa 0,0 l/m W-SW 0,00 h 0 W/m 20,6 km/h (4 Bft)
11.01.2015 21:00 1,3 C 87 % 1027,6 hPa 0,0 l/m W-SW 0,00 h 0 W/m 21,8 km/h (4 Bft)
11.01.2015 22:00 1,3 C 87 % 1027,9 hPa 0,0 l/m W-SW 0,00 h 0 W/m 24,4 km/h (4 Bft)
11.01.2015 23:00 1,6 C 85 % 1028,4 hPa 0,0 l/m W 0,00 h 0 W/m 29,2 km/h (5 Bft)
Min-Datum _ 06.01.15 09.01.15 11.01.15 - - - - 05.01.15
_ Min-Zeit 08:45 14:15 02:45 - - - - 00:20
Minimum _ -5,9 C 68 % 1013,0 hPa - - - - 0,0 km/h (0 Bft)
Max-Datum _ 10.01.15 07.01.15 05.01.15 11.01.15 - 05.01.15 10.01.15 09.01.15
_ Max-Zeit 13:00 11:45 02:45 03:15 - 10:00 12:50 22:35
Maximum _ 14,0 C 99 % 1036,6 hPa 4,0 l/m - 0,08 h 425 W/m 64,4 km/h
W (8 Bft)
Durchschnitt _ 2,8 C 90 % 1026,8 hPa #12,2 l/m W-SW #14:55 h 90 W/m 16,6 km/h (3 Bft)